Location: Remedello Sotto
(45.2500°N, 10.3667°E)
Time: 05:18:07
(UTC+00:00)

Cosmos 1741 Rocket - Pass Details

Date: 03 February 2023
Orbit: 761 x 781 km, 74.0° (Epoch: 29 March)

Event Time Altitude Azimuth Distance (km) Brightness Sun altitude
Rises 18:29:50 0° 198° (SSW) 3,245 7.5 -21.6°
Reaches altitude 10° 18:32:12 10° 198° (SSW) 2,324 6.7 -22.0°
Maximum altitude 18:37:30 88° 111° (ESE) 788 3.9 -23.0°
Enters shadow 18:40:23 28° 22° (NNE) 1,432 5.2 -23.5°
